Regional Weather Roundup
Issued by NWS

Home | Current Version | Previous Version | Graphics & Text | Print | Product List | Glossary On
Versions: 1 2 3 4 5 6 7 8 9 10 11 12 13 14 15 16 17 18 19 20 21 22 23 24 25 26 27 28 29 30 31 32 33 34 35 36 37 38 39 40 41 42 43 44 45 46 47 48 49 50
000
ASUS43 KLSX 261110
RWRMO

WEATHER SUMMARY FOR MISSOURI
NATIONAL WEATHER SERVICE SPRINGFIELD MO
600 AM CDT THU APR 26 2018

NOTE: "FAIR" INDICATES FEW OR NO CLOUDS BELOW 12,000 FEET WITH NO
       SIGNIFICANT WEATHER AND/OR OBSTRUCTIONS TO VISIBILITY.
       CURRENT SKY AND/OR WEATHER CONDITIONS ARE NOT AVAILABLE FOR
       CHILLICOTHE AND FARMINGTON.

MOZ001>031-035>038-043-044-053-054-261200-
...NORTHERN AND WESTERN MISSOURI...

CITY           SKY/WX    TMP DP  RH WIND       PRES   REMARKS
KANSAS CTY INT CLOUDY    39  37  92 CALM      29.97F FOG
KANSAS C DTWN  CLOUDY    42  40  92 CALM      29.98S
LEE`S SUMMIT   CLEAR     41  41 100 W5        29.98S FOG
ST JOSEPH      CLOUDY    32  32 100 N5        29.99S FOG     WCI  27
CHILLICOTHE      N/A     34  33  96 CALM      29.97F
KIRKSVILLE     CLEAR     41  36  82 NW7       29.95S

$$
MOZ066>068-077>081-088>096-101>105-261200-
...SOUTHWEST MISSOURI...

CITY           SKY/WX    TMP DP  RH WIND       PRES   REMARKS
SPRINGFIELD    FOG       49  47  93 N9        29.95R VSB 1
JOPLIN         CLOUDY    49  48  97 N5        29.97S
BRANSON        CLOUDY    48  48 100 CALM      29.94R FOG

$$
MOZ032>034-039>042-045>050-055>058-069>072-261200-
...CENTRAL MISSOURI...

CITY           SKY/WX    TMP DP  RH WIND       PRES   REMARKS
COLUMBIA       CLOUDY    47  47 100 NW8       29.95S
JEFFERSON CITY CLOUDY    49  48  97 NW5       29.95S
ROLLA          CLOUDY    48  46  93 NW8       29.94R FOG
SEDALIA        CLEAR     45  45 100 CALM      29.97S FOG
WHITEMAN AFB   PTCLDY    41  41  99 W3        29.92F FOG
WARRENSBURG    CLEAR     41  41 100 W5        29.97S FOG
OSAGE BEACH    CLOUDY    47  47 100 NW3       29.96S FOG

$$
MOZ051-052-059>065-261200-
...EAST CENTRAL MISSOURI...

CITY           SKY/WX    TMP DP  RH WIND       PRES   REMARKS
ST LOUIS INTL  CLOUDY    53  43  68 NE5       29.91S
SPIRIT OF STL  CLOUDY    49  47  93 W3        29.92R
ST CHARLES     CLOUDY    49  41  74 N6        29.92R

$$
MOZ072>076-082>087-097>100-106>115-261200-
...SOUTH CENTRAL AND SOUTHEAST MISSOURI...

CITY           SKY/WX    TMP DP  RH WIND       PRES   REMARKS
CAPE GIRARDEAU CLOUDY    56  52  86 N6        29.88R
FARMINGTON     CLOUDY    52  48  87 NW6       29.92R
POPLAR BLUFF   CLOUDY    55  53  93 N7        29.87S
WEST PLAINS    CLOUDY    51  48  89 N6        29.92R

$$



USA.gov is the U.S. government's official web portal to all federal, state and local government web resources and services.